Location: Burgwalden
(48.2830°N, 10.7576°E)
Time: 02:58:03
(UTC+00:00)

Cosmos 1408 Rocket - Pass Details

Date: 26 September 2023
Orbit: 598 x 628 km, 82.6° (Epoch: 04 December)

Event Time Altitude Azimuth Distance (km) Brightness Sun altitude
Rises 03:13:19 0° 353° (N) 2,889 7.2 -19.6°
Reaches altitude 10° 03:15:34 10° 357° (N) 1,985 6.4 -19.2°
Maximum altitude 03:19:55 61° 78° (ENE) 705 4.1 -18.5°
Drops below altitude 10° 03:24:17 10° 159° (SSE) 1,987 6.2 -17.9°
Sets 03:26:32 0° 163° (SSE) 2,893 7.0 -17.5°
